Location: Unspecified
(33.6682°S, 0.0000°E)
Time: 13:43:15
(UTC+00:00)

Tiros 1 despin weight - Pass Details

Date: 25 June 2019
Orbit: 594 x 642 km, 48.2° (Epoch: 24 August)

Event Time Altitude Azimuth Distance (km) Brightness Sun altitude
Rises 17:48:05 0° 251° (WSW) 2,962 ? -9.9°
Reaches altitude 10° 17:51:21 10° 274° (W) 2,040 ? -10.5°
Maximum altitude 17:53:58 15° 308° (NW) 1,726 ? -11.0°
Drops below altitude 10° 17:56:34 10° 343° (NNW) 2,016 ? -11.5°
Sets 17:59:47 0° 6° (N) 2,906 ? -12.1°
